Location: Nebula Knoll Observatory
(43.6666°N, 71.0000°W)
Time: 03:11:54
(UTC-05:00)

Cosmos 1782 - Visible Passes

Search period start: 08 February 2016 00:00
Search period end: 18 February 2016 00:00
Orbit: 542 x 556 km, 82.5° (Epoch: 07 February)

Date Brightness Start Highest point End Pass type
(mag) Time Alt. Az. Time Alt. Az. Time Alt. Az.
08 Feb 5.3 06:22:20 10° SSE 06:25:47 28° E 06:29:16 10° NNE visible
08 Feb 2.7 17:56:06 10° N 18:00:09 72° E 18:04:08 10° SSE visible
09 Feb 5.2 06:17:35 10° SSE 06:21:07 30° E 06:24:41 10° NNE visible
09 Feb 2.7 17:51:27 10° N 17:55:30 79° E 17:59:30 10° SSE visible
10 Feb 5.0 06:12:50 10° SSE 06:16:28 32° E 06:20:06 10° NNE visible
10 Feb 2.8 17:46:49 10° N 17:50:52 86° E 17:54:52 10° S visible
11 Feb 4.8 06:08:06 10° SSE 06:11:48 35° E 06:15:31 10° NNE visible
11 Feb 2.9 17:42:10 10° N 17:46:13 87° W 17:50:13 10° S visible
12 Feb 4.6 06:03:23 10° SSE 06:07:09 38° E 06:10:55 10° NNE visible
12 Feb 3.0 17:37:31 10° N 17:41:34 80° W 17:45:33 10° S visible
13 Feb 4.4 05:58:40 10° SSE 06:02:29 41° E 06:06:19 10° NNE visible
14 Feb 4.2 05:53:57 10° SSE 05:57:49 45° E 06:01:43 10° NNE visible
15 Feb 4.0 05:49:15 10° SSE 05:53:09 49° E 05:57:06 10° NNE visible
16 Feb 3.7 05:44:33 10° S 05:48:30 54° E 05:52:28 10° NNE visible
17 Feb 3.5 05:39:51 10° S 05:43:50 59° E 05:47:50 10° NNE visible
